www.pogodaiklimat.ru

Погода и климат >> Архив погоды >> Россия >> Магаданская область >> Балыгычан


ПОГОДА в Балыгычане

  • Прогноз погоды в Балыгычане
  • Монитор погоды в Балыгычане

АРХИВ ПОГОДЫ в Балыгычане

Время (UTC), дата Ветер
(напр.,м/с)
 
Видим.   Явления Облачность Т
(С)
Тd
(С)
f
(%)
Тe
(С)
Тes
(С)
Комфортность P
(гПа)
Po
(гПа)
Тmin
(С)
Tmax
(С)
R
(мм)
R24
(мм)
S
(см)
09 19.04 штиль 0 50 км 10/4 1000 м
[Sc Ac und]
+2.8 -9.1 41 +3 +3 1022.3 1004.0 +5.3
12 19.04 ЮЗ 1 50 км 10/3 1000 м
[Sc Cs]
+0.3 -6.5 60 -1 -1 1021.1 1002.7
15 19.04 штиль 0 50 км 10/3 1000 м
[Sc Cs]
-3.0 -5.5 83 -4 -4 1021.4 1002.7
18 19.04 В 1 50 км 10/4 1000 м
[Sc Ac und]
-3.0 -6.0 80 -5 -5 1021.4 1002.7
21 19.04 СВ 1 20 км слаб. ливневой снег 10/10 1000 м
[Cb cap]
-2.3 -5.0 82 -4 -4 1018.4 999.8 -3.5 0.0 29
00 20.04 штиль 0 20 км слаб. ливневой снег 10/10 1000 м
[Cb cap]
+0.1 -2.3 84 -1 -1 1018.4 1000.0
03 20.04 Ю 2 50 км {ливн. осадки} 10/10 1000 м
[Sc]
+2.0 -2.7 71 -1 -1 1019.6 1001.3
06 20.04 СЗ 3 50 км {ливн. осадки} 8/8 1000 м
[Cu med, cong]
+4.2 -5.0 51 +1 +2 1019.4 1001.3
09 20.04 СЗ 2 50 км 8/8 1000 м
[Cu med, cong]
+4.2 -5.0 51 +2 +2 1022.2 1004.0 +4.9 0.0
12 20.04 ЮЗ 1 50 км 10/0
[Ci fib]
-5.5 -7.5 86 -8 -8 1024.2 1005.3
15 20.04 ЮЗ 1 50 км 10/0
[Ci fib]
-7.8 -8.7 93 -10 -10 1024.3 1005.3
18 20.04 ЮВ 1 50 км 10/0
[Ci fib]
-10.9 -11.9 92 -13 -13 1024.6 1005.3
21 20.04 В 1 50 км 4/0
[Ac trans]
-3.0 -7.6 71 -5 -3 1022.4 1003.7 -11.6 28
00 21.04 СВ 2 50 км 10/8 1000 м
[Sc Ac trans]
+1.5 -6.6 55 -1 -1 1022.4 1004.0
03 21.04 В 1 50 км 9/9 1000 м
[Sc]
+4.1 -6.2 47 +3 +4 1020.9 1002.7
06 21.04 В 2 50 км 9/9 1000 м
[Sc]
+5.7 -5.0 46 +4 +4 1018.0 1000.0
09 21.04 СВ 1 50 км 10/4 1000 м
[Sc Ac trans Ci fib]
+3.5 -4.0 58 +3 +3 1018.2 1000.0 +5.8
12 21.04 СВ 1 50 км 3/0
[Ci fib]
-0.9 -4.2 78 -3 -3 1018.5 1000.0
15 21.04 С 1 50 км 5/0
[Ci fib]
-3.8 -5.5 88 -6 -6 1017.3 998.7
18 21.04 ЮВ 5 50 км 3/0
[Ci fib]
+0.6 -4.8 67 -5 -5 1017.0 998.7
21 21.04 ЮВ 5
{11}
50 км ясно +2.5 -4.5 60 -2 -1 1015.3 997.1 -5.8 27
00 22.04 ЮВ 5
{11}
50 км 10/0
[Ci fib]
+5.3 -4.0 51 +1 +1 1015.3 997.3
03 22.04 ЮВ 4 50 км 10 баллов +6.8 -3.7 47 +4 +4 1013.9 996.0
06 22.04 ЮВ 4 50 км 10/0
[Ac und]
+5.3 -3.5 53 +2 +2 1014.0 996.0
09 22.04 Ю 2 50 км 10/0
[Ac und]
+4.0 -4.0 56 +2 +2 1014.1 996.0 +7.0
12 22.04 ЮВ 3 50 км 10/0
[Ci fib]
+1.8 -4.7 62 -2 -2 1014.2 996.0
15 22.04 ЮВ 2 н/о н/о +0.2 -5.8 64 -3 -3 1014.3 996.0
18 22.04 ЮВ 5 50 км 10/0
[Ci fib]
-0.9 -6.3 67 -7 -7 1013.5 995.1
21 22.04 ЮВ 5 50 км 10/0
[Cs]
+0.6 -6.7 58 -5 -4 1013.5 995.3 -1.0 27
00 23.04 Ю 4
{11}
50 км 10/0
[Cs]
+3.3 -6.7 48 -1 -1 1014.1 996.0
03 23.04 ЮВ 5 50 км 10/0
[Cs]
+4.4 -6.2 46 0 0 1014.0 996.0
06 23.04 Ю 3 50 км 10/0
[Ac lent Cs]
+5.6 -5.4 45 +3 +3 1012.6 994.7
09 23.04 Ю 2 50 км 10/0
[Ac lent Cs]
+4.5 -4.5 52 +2 +2 1012.7 994.7 +5.7
12 23.04 ЮВ 3 50 км 5/0
[Ac lent Ci fib]
+2.3 -3.4 66 -2 -2 1012.8 994.7
15 23.04 ЮВ 4 50 км 8/0
[Ac trans Ci fib]
+1.1 -3.8 70 -4 -4 1014.2 996.0
18 23.04 ЮВ 4 50 км 10/0
[Ac und]
+0.9 -4.3 68 -4 -4 1014.3 996.0
21 23.04 ЮВ 2 50 км 10/0
[Ac und]
+0.9 -4.3 68 -2 -1 1013.4 995.3 +0.6 25
00 24.04 ЮВ 4 50 км 10 баллов +4.2 -3.6 57 0 0 1014.0 996.0
03 24.04 ЮЗ 2 50 км 10 баллов +4.8 -4.2 52 +3 +3 1014.0 996.0
06 24.04 Ю 2 50 км 10 баллов +5.7 -5.6 44 +4 +4 1013.9 996.0
09 24.04 штиль 0 50 км 10/0
[Ac und]
+4.1 -4.9 52 +4 +4 1014.0 996.0 +5.9
12 24.04 Ю 1 50 км 10/0
[Ac und]
+3.1 -3.9 60 +2 +2 1014.1 996.0
15 24.04 ЮВ 1 50 км 10/0
[Ac und]
-0.6 -3.8 79 -3 -3 1012.7 994.4
18 24.04 ЮВ 3 50 км 10/0
[Ac und]
+1.0 -4.0 69 -3 -3 1014.3 996.0
21 24.04 ЮВ 4 50 км 10/3 1000 м
[Sc Ac lent Ci fib]
+2.0 -3.3 68 -3 -2 1012.2 994.1 -1.7 23
00 25.04 ЮВ 5 50 км 10/3 1000 м
[Sc Ci fib]
+4.1 -3.2 59 -0 -0 1012.7 994.7
03 25.04 ЮВ 4 50 км 10/5 1000 м
[Cb cap Ci fib]
+5.0 -4.8 49 +2 +2 1011.2 993.3
06 25.04 ЮВ 4 50 км 8/4 1000 м
[Cu med, cong Ci fib]
+4.8 -3.7 54 +1 +2 1011.3 993.3
09 25.04 ЮВ 2 50 км 10/5 1000 м
[Sc Ac trans Ci fib]
+2.5 -2.4 70 -0 -0 1011.4 993.3 +6.0
12 25.04 штиль 0 50 км 7 баллов -1.4 -3.1 88 -3 -3 1011.7 993.3
15 25.04 В 1 50 км 10 баллов -2.4 -3.4 93 -5 -5 1010.4 992.0
18 25.04 штиль 0 50 км 5 баллов -4.6 -5.1 96 -6 -6 1009.2 990.7
21 25.04 В 1 50 км 4/0
[Ci fib]
+1.0 -7.3 54 -0 +3 1006.8 988.7 -7.6 22
00 26.04 СВ 3 50 км 4 балла +3.4 -7.1 46 0 +5 1006.0 988.0
03 26.04 СВ 3 50 км 10 баллов +4.5 -7.9 40 +2 +2 1003.1 985.3

 

Местоположение метеостанции Балыгычан (Магаданская область, Россия): широта 63.91 долгота 154.10 высота над уровнем моря 146 м.

В архиве по умолчанию представлена погода в Балыгычане за последнюю неделю. Архивные данные за месяц целиком и за предыдущие месяцы, начиная с января 2011 года, Вы можете получить, выбрав интересующий диапазон дат из раскрывающегося списка и нажав кнопку "Ввод!".


*Определитесь, кто Вы:
робот инопланетянин человек

Внимание! Время в таблицах - всемирное. Для получения местного времени необходимо прибавить поправку, которая равна 11 ч.

Смотрите также архив погоды в соседних городах и на ближайших метеорологических станциях:

Погода в Коркодоне (Магаданская область, Россия) (94 км)
Погода в Сеймчане (Магаданская область, Россия) (140 км)
Погода в Омсукчане (Магаданская область, Россия) (177 км)
Погода в Среднекане (Магаданская область, Россия) (186 км)
Погода в Совхозе Эльген (Магаданская область, Россия) (214 км)
Погода в Лабазной (Магаданская область, Россия) (228 км)
Погода в Зырянке (Якутия, Россия) (253 км)
Погода в Усть-Бохапче (Магаданская область, Россия) (268 км)
Погода в Ягодной (Магаданская область, Россия) (274 км)
Погода на Озере Джека Лондона (Магаданская область, Россия) (309 км)

Пояснения к столбцам:

Ветер - указаны скорость ветра в м/с - средняя за 10 мин, порывы в срок и между сроками (в фигурных скобках) и направление, откуда дует ветер: С - северный, СВ - северо-восточный, В - восточный, ЮВ - юго-восточный, Ю - южный, ЮЗ - юго-западный, З - западный, СЗ - северо-западный.
Видимость - горизонтальная дальность видимости в метрах или километрах. При видимости от 1 до 10 км при отсутствии осадков обычно наблюдается дымка, при ухудшении видимости до 1 км и менее - туман. В сухую погоду видимость может ухудшаться дымом, пылью или мглою.
Явления - указаны атмосферные явления, наблюдавшиеся в срок или в последний час перед сроком; фигурными скобками обозначены явления, наблюдавшиеся между сроками (за 1-3 часа до срока); квадратными скобками обозначены град или гололедные отложения с указанием их диаметра в мм.
Облачность - указаны через наклонную черту общая и нижняя облачность в баллах и высота нижней границы облаков в метрах; квадратными скобками обозначены формы облаков: Ci - перистые, Cs - перисто-слоистые, Cc - перисто-кучевые, Ac - высококучевые, As - высокослоистые, Sc - слоисто-кучевые, Ns - слоисто-дождевые, Cu - кучевые, Cb - кучево-дождевые. Подробнее классификацию облаков см. в Атласе облаков (PDF).
T - Температура воздуха - температура, измеренная на высоте 2 м над землей.
Td - Температура точки росы - температура, при понижении до которой содержащийся в воздухе водяной пар достигнет насыщения.
f - Относительная влажность воздуха - влажноcть воздуха, измеренная на высоте 2 м над землей.
Te - Эффективная температура - температура, которую ощущает одетый по сезону человек в тени. Характеристика душности погоды. При расчете учитывается влияние влажности воздуха и скорости ветра на теплоощущения человека.
Tes - Эффективная температура на солнце - температура, которую ощущает человек, с поправкой на солнечный нагрев. Характеристика знойности погоды. Зависит от высоты солнца над горизонтом, облачности и скорости ветра. Ночью, в пасмурную погоду, а также при ветре 12 м/с и более поправка равна нулю.
P - Атмосферное давление - приведенное к уровню моря атмосферное давление.
Po - Атмосферное давление - измеренное на уровне метеостанции атмосферное давление.
Tmin - Минимальная температура - минимум температуры воздуха на высоте 2 м над землей.
Tmax - Максимальная температура - максимум температуры воздуха на высоте 2 м над землей.
R - Количество осадков - Количество выпавших осадков за период времени, мм. При наведении курсора мыши на число - период времени, за который выпало указанное количество осадков.
R24 - Количество осадков - Количество выпавших осадков за 24 часа, мм.
S - Снежный покров - Высота снежного покрова, см. При наведении курсора мыши на число - состояние снежного покрова и степень покрытия местности в баллах.